Meteo Giornale » Osservazioni meteo Italia » Cagliari-Elmas

ore: 09:20 - Osservazioni Meteo Cagliari-Elmas
Lat. 39° 15' N Lon. 9° 4' E Alt. 4 metri s.l.m.

poco_nuvoloso Europe/Rome

11 °C

Poco Nuvoloso

Temp. 24 Ore

8 °C

20 °C

Nord/NOvest

13 Km/h

Dew point 6 °C

Umidità 71 %

Visibilità  10 Km

Il sole sorge alle ore 06:59

Il sole tramonta alle ore 18:13

Data e Ora Cielo e Fenomeni T °C DP °C Um. % Pres. hPa Vis. km Vento km/h
Oggi h: 09:20 poco_nuvoloso Poco Nuvoloso 11 6 71 1013 10 N/NO 13
Oggi h: 08:50 poco_nuvoloso Poco Nuvoloso 9 6 81 1013 10 N/NO 13
Oggi h: 07:20 sereno Sereno 9 6 81 1012 10 NO 14.8
Oggi h: 06:50 sereno Sereno 8 6 87 1012 10 N/NO 7.4
Oggi h: 06:20 sereno Sereno 8 5 81 1011 10 NO 9.3
Oggi h: 05:20 sereno Sereno 9 6 81 1011 10 N/NO 20.3
Oggi h: 04:20 poco_nuvoloso Poco Nuvoloso 10 7 81 1011 10 N/NO 20.3
Oggi h: 03:50 poco_nuvoloso Poco Nuvoloso 10 7 81 1011 10 N/NO 18.5
Oggi h: 03:20 sereno Sereno 10 8 87 1011 10 N 14.8
Oggi h: 02:50 sereno Sereno 10 8 87 1011 10 N/NO 18.5
Oggi h: 02:20 sereno Sereno 11 8 81 1011 10 N/NO 22.2
Oggi h: 01:50 sereno Sereno 11 8 81 1011 10 N/NO 22.2
Oggi h: 01:20 sereno Sereno 11 8 81 1011 10 N/NO 24
Oggi h: 00:50 sereno Sereno 12 8 76 1011 10 N/NO 24
Oggi h: 00:20 sereno Sereno 13 8 71 1011 10 N/NO 31.5
Ieri h: 23:20 sereno Sereno 13 9 76 1010 10 N/NO 31.5
Ieri h: 22:50 sereno Sereno 13 9 76 1010 10 N/NO 25.9
Ieri h: 22:20 sereno Sereno 13 10 81 1009 10 N 24
Ieri h: 21:50 sereno Sereno 13 10 81 1009 10 N 20.3
Ieri h: 21:20 sereno Sereno 12 10 87 1008 10 N/NO 14.8
Ieri h: 20:50 sereno Sereno 13 10 81 1008 10 N/NO 16.7
Ieri h: 20:20 poco_nuvoloso Poco Nuvoloso 14 11 82 1008 10 N 22.2
Ieri h: 19:50 poco_nuvoloso Poco Nuvoloso 14 11 82 1008 10 N 27.8
Ieri h: 19:20 poco_nuvoloso Poco Nuvoloso 15 12 82 1007 10 N/NO 25.9
Ieri h: 18:50 sereno Sereno 15 13 87 1006 9 NO 7.4
Ieri h: 18:20 sereno Sereno 16 12 77 1006 9 N 5.5
Ieri h: 17:50 sereno Sereno 16 13 82 1006 9 E/SE 9.3
Ieri h: 17:20 sereno Sereno 17 13 77 1005 9 E/SE 18.5
Ieri h: 16:50 sereno Sereno 17 13 77 1005 9 E/SE 14.8
Ieri h: 16:20 sereno Sereno 18 12 67 1005 9 E/SE 18.5
Ieri h: 15:50 poco_nuvoloso Poco Nuvoloso 18 12 67 1005 9 E/SE 27.8
Ieri h: 15:20 poco_nuvoloso Poco Nuvoloso 18 12 67 1005 9 SE 27.8
Ieri h: 14:50 sereno Sereno 20 12 59 1006 9 SE 24
Ieri h: 14:20 sereno Sereno 20 13 64 1007 10 E/NE 14.8
Ieri h: 13:20 sereno Sereno 19 12 63 1007 10 E/SE 22.2
Ieri h: 12:50 sereno Sereno 17 13 77 1008 10 E/SE 18.5
Ieri h: 12:20 sereno Sereno 18 13 72 1008 10 SE 13
Ieri h: 11:50 sereno Sereno 18 13 72 1009 10 SE 16.7
Ieri h: 11:20 sereno Sereno 18 14 77 1009 10 SE 14.8
Ieri h: 10:50 sereno Sereno 17 14 82 1009 10 SE 16.7
Ieri h: 10:20 sereno Sereno 17 13 77 1010 10 SE 18.5
Ieri h: 09:50 sereno Sereno 16 14 87 1010 10 S/SE 13
Ieri h: 09:20 sereno Sereno 15 12 82 1010 10 S 7.4